Location: Unspecified
(41.1637°N, 24.2901°E)
Time: 11:56:09
(UTC+02:00)

ISS - Pass Details

Date: 09 May 2026
Orbit: 414 x 424 km, 51.6° (Epoch: 12 May)

Event Time Altitude Azimuth Distance (km) Brightness Sun altitude
Exits shadow 03:24:03 14° 301° (WNW) 1,262 -1.5 -17.6°
Maximum altitude 03:26:49 72° 219° (SW) 442 -3.9 -17.2°
Drops below altitude 10° 03:30:09 10° 134° (SE) 1,494 -0.9 -16.7°
Sets 03:32:15 0° 132° (SE) 2,356 0.1 -16.4°
